"Timestamp","TZ","WindDir_Mean (deg)","WindSpd_Mean (km/h)","WindSpd_Min (km/h)","WindSpd_Max (km/h)","Temp_Mean (deg)","RH_Mean (%)","MSLP_Mean (hPa)","Rain_Acc (mm)","Rain_Intensity (mm/h)","Hail_Acc (hits/cm2)","Hail_Intensity (hits/cm2hr)","Solar_Mean (W/m2)"
2022/09/02 00:00:00.003,n,256,2.16,1.8,2.52,15.9,83.3,1022.82,0,0,0,0,0.033073
2022/09/02 00:01:00.001,n,245,2.52,2.52,3.24,15.9,83.2,1022.82,0,0,0,0,0.032196
2022/09/02 00:02:00.001,n,266,3.6,3.6,3.6,15.8,83.1,1022.82,0,0,0,0,0.035667
2022/09/02 00:03:00.001,n,272,5.04,5.04,5.04,15.8,83.1,1022.82,0,0,0,0,0.033073
2022/09/02 00:04:00.001,n,260,3.96,1.08,4.68,15.8,83.2,1022.72,0,0,0,0,0.030441
2022/09/02 00:05:00.001,n,259,2.16,2.16,2.52,15.8,83.2,1022.72,0,0,0,0,0.035667
2022/09/02 00:06:00.001,n,261,0.72,0.36,1.08,15.8,83.3,1022.72,0,0,0,0,0.033913
2022/09/02 00:07:00.001,n,299,0.72,0,1.8,15.7,83.4,1022.72,0,0,0,0,0.032196
2022/09/02 00:08:00.002,n,236,0.36,0,0.72,15.7,83.4,1022.72,0,0,0,0,0.03479
2022/09/02 00:09:00.005,n,275,1.08,0.36,1.44,15.7,83.6,1022.72,0,0,0,0,0.0383
2022/09/02 00:10:00.002,n,269,0.72,0.36,1.44,15.7,83.6,1022.72,0,0,0,0,0.03479
2022/09/02 00:11:00.001,n,231,1.8,1.8,2.16,15.7,83.5,1022.72,0,0,0,0,0.033913
2022/09/02 00:12:00.002,n,238,1.08,0.72,1.8,15.7,83.5,1022.72,0,0,0,0,0.035667
2022/09/02 00:13:00.001,n,236,2.52,1.8,3.6,15.7,83.7,1022.72,0,0,0,0,0.035667
2022/09/02 00:14:00.002,n,266,2.88,2.88,3.24,15.8,83.9,1022.72,0,0,0,0,0.033073
2022/09/02 00:15:00.005,n,274,2.88,2.88,3.24,15.8,83.7,1022.72,0,0,0,0,0.033913
2022/09/02 00:16:00.007,n,222,2.16,1.44,3.6,15.7,83.6,1022.72,0,0,0,0,0.031319
2022/09/02 00:17:00.010,n,263,3.24,2.88,3.6,15.7,83.6,1022.82,0,0,0,0,0.031319
2022/09/02 00:18:00.012,n,286,3.24,2.52,3.6,15.7,83.6,1022.82,0,0,0,0,0.033073
2022/09/02 00:19:00.001,n,261,3.6,3.6,3.96,15.7,83.7,1022.82,0,0,0,0,0.030441
2022/09/02 00:20:00.001,n,273,3.6,3.6,3.96,15.7,83.7,1022.82,0,0,0,0,0.030441
2022/09/02 00:21:00.001,n,271,3.24,3.24,3.6,15.7,83.8,1022.82,0,0,0,0,0.033073
2022/09/02 00:22:00.004,n,260,3.24,3.24,3.6,15.7,83.8,1022.82,0,0,0,0,0.033913
2022/09/02 00:23:00.005,n,253,3.24,2.88,3.6,15.7,83.8,1022.82,0,0,0,0,0.031319
2022/09/02 00:24:00.001,n,262,1.8,1.44,2.16,15.7,83.8,1022.72,0,0,0,0,0.033913
2022/09/02 00:25:00.002,n,164,1.44,1.08,1.44,15.7,83.8,1022.72,0,0,0,0,0.028725
2022/09/02 00:26:00.005,n,191,1.8,1.44,1.8,15.7,83.9,1022.72,0,0,0,0,0.032196
2022/09/02 00:27:00.011,n,230,1.44,1.08,4.32,15.7,83.9,1022.72,0,0,0,0,0.032196
2022/09/02 00:28:00.001,n,218,1.08,0.72,1.44,15.7,83.9,1022.72,0,0,0,0,0.029564
2022/09/02 00:29:00.001,n,154,1.44,0.72,2.16,15.7,83.8,1022.72,0,0,0,0,0.031319
2022/09/02 00:30:00.002,n,157,2.88,1.8,6.84,15.7,83.8,1022.72,0,0,0,0,0.031319
2022/09/02 00:31:00.004,n,123,1.44,0.72,2.16,15.7,83.8,1022.72,0,0,0,0,0.031319
2022/09/02 00:32:00.006,n,187,1.8,0.36,2.88,15.7,84,1022.72,0,0,0,0,0.029564
2022/09/02 00:33:00.008,n,125,1.44,1.08,1.44,15.7,83.8,1022.72,0,0,0,0,0.028725
2022/09/02 00:34:00.008,n,107,1.08,0.36,1.8,15.7,83.8,1022.72,0,0,0,0,0.029564
2022/09/02 00:35:00.013,n,142,1.08,0.72,1.08,15.7,83.8,1022.72,0,0,0,0,0.030441
2022/09/02 00:36:00.005,n,229,0.36,0.36,0.72,15.7,83.8,1022.72,0,0,0,0,0.027847
2022/09/02 00:37:00.001,n,253,0.72,0,1.44,15.7,83.8,1022.72,0,0,0,0,0.028725
2022/09/02 00:38:00.001,n,231,0.72,0.72,1.08,15.7,83.8,1022.62,0,0,0,0,0.026093
2022/09/02 00:39:00.001,n,246,2.16,1.8,2.52,15.7,83.8,1022.62,0,0,0,0,0.029564
2022/09/02 00:40:00.001,n,239,1.08,0.36,1.44,15.7,83.9,1022.62,0,0,0,0,0.027847
2022/09/02 00:41:00.003,n,250,1.8,1.8,2.16,15.7,83.9,1022.62,0,0,0,0,0.026932
2022/09/02 00:42:00.004,n,186,0.72,0.36,0.72,15.7,83.8,1022.62,0,0,0,0,0.026093
2022/09/02 00:43:00.007,n,149,1.44,0.72,1.44,15.7,83.7,1022.62,0,0,0,0,0.027847
2022/09/02 00:44:00.007,n,236,0.36,0.36,0.36,15.7,83.8,1022.52,0,0,0,0,0.028725
2022/09/02 00:45:00.010,n,155,0.36,0,0.72,15.7,83.4,1022.52,0,0,0,0,0.029564
2022/09/02 00:46:00.001,n,182,0.36,0,0.36,15.6,83.5,1022.52,0,0,0,0,0.026932
2022/09/02 00:47:00.004,n,161,2.52,2.52,2.52,15.6,83.6,1022.62,0,0,0,0,0.029564
2022/09/02 00:48:00.002,n,183,2.16,0.72,6.48,15.6,83.6,1022.62,0,0,0,0,0.026932
2022/09/02 00:49:00.008,n,151,2.52,2.16,2.88,15.6,83.6,1022.62,0,0,0,0,0.029564
2022/09/02 00:50:00.001,n,146,1.8,1.08,2.52,15.5,83.5,1022.62,0,0,0,0,0.027847
2022/09/02 00:51:00.001,n,163,2.16,1.08,5.76,15.5,83.6,1022.62,0,0,0,0,0.026093
2022/09/02 00:52:00.001,n,194,2.52,2.16,2.52,15.5,83.8,1022.62,0,0,0,0,0.026093
2022/09/02 00:53:00.002,n,186,3.6,2.52,6.12,15.5,83.9,1022.62,0,0,0,0,0.026932
2022/09/02 00:54:00.005,n,269,0.36,0.36,0.36,15.5,84,1022.72,0,0,0,0,0.028725
2022/09/02 00:55:00.001,n,166,1.8,0.72,6.84,15.5,84,1022.72,0,0,0,0,0.026093
2022/09/02 00:56:00.001,n,175,0.36,0.36,0.36,15.5,83.9,1022.72,0,0,0,0,0.026093
2022/09/02 00:57:00.001,n,149,1.08,1.08,1.44,15.5,83.9,1022.72,0,0,0,0,0.026932
2022/09/02 00:58:00.002,n,241,1.08,0.72,1.8,15.5,83.9,1022.72,0,0,0,0,0.028725
2022/09/02 00:59:00.009,n,235,0,0,0.36,15.4,84.1,1022.72,0,0,0,0,0.026932
2022/09/02 01:00:00.012,n,269,1.08,0.72,1.44,15.5,84.2,1022.72,0,0,0,0,0.022583
2022/09/02 01:01:00.011,n,292,0.36,0,0.36,15.5,84.2,1022.72,0,0,0,0,0.024338
2022/09/02 01:02:00.013,n,280,1.08,0.72,1.44,15.5,84.2,1022.62,0,0,0,0,0.026093
2022/09/02 01:03:00.015,n,162,0,0,0.36,15.5,84.1,1022.62,0,0,0,0,0.027847
2022/09/02 01:04:00.002,n,304,0.72,0.36,0.72,15.5,84.1,1022.62,0,0,0,0,0.025215
2022/09/02 01:05:00.003,n,170,1.44,1.08,1.44,15.5,84.1,1022.62,0,0,0,0,0.028725
2022/09/02 01:06:00.004,n,76,0.72,0.72,1.44,15.5,84.1,1022.52,0,0,0,0,0.025215
2022/09/02 01:07:00.006,n,144,1.44,0.72,2.16,15.4,84,1022.52,0,0,0,0,0.026093
2022/09/02 01:08:00.008,n,183,2.88,2.88,3.24,15.5,84.2,1022.42,0,0,0,0,0.027847
2022/09/02 01:09:00.009,n,207,2.88,1.44,5.76,15.5,84,1022.42,0,0,0,0,0.024338
2022/09/02 01:10:00.002,n,150,5.04,4.68,5.4,15.4,83.7,1022.42,0,0,0,0,0.026932
2022/09/02 01:11:00.009,n,153,5.4,5.4,5.76,15.3,83.8,1022.42,0,0,0,0,0.026932
2022/09/02 01:12:00.010,n,153,5.4,5.04,5.4,15.3,83.8,1022.32,0,0,0,0,0.024338
2022/09/02 01:13:00.002,n,135,3.6,3.24,3.96,15.2,83.9,1022.32,0,0,0,0,0.022583
2022/09/02 01:14:00.001,n,166,4.32,3.6,8.64,15.2,84,1022.32,0,0,0,0,0.028725
2022/09/02 01:15:00.001,n,144,4.68,3.96,5.04,15.2,84.2,1022.22,0,0,0,0,0.027847
2022/09/02 01:16:00.002,n,124,1.8,1.44,2.52,15.2,84.4,1022.22,0,0,0,0,0.026093
2022/09/02 01:17:00.004,n,142,4.32,4.32,5.04,15.2,84.4,1022.12,0,0,0,0,0.022583
2022/09/02 01:18:00.007,n,141,9,7.56,9.72,15.2,84.5,1022.12,0,0,0,0,0.025215
2022/09/02 01:19:00.010,n,154,7.92,4.32,11.88,15.1,84.5,1022.12,0,0,0,0,0.021744
2022/09/02 01:20:00.013,n,144,6.12,5.04,6.84,15.1,84.7,1022.02,0,0,0,0,0.024338
2022/09/02 01:21:00.017,n,148,6.84,6.12,10.440002,15.1,84.7,1022.02,0,0,0,0,0.023499
2022/09/02 01:22:00.002,n,152,7.92,5.4,11.88,15.1,84.8,1022.02,0,0,0,0,0.021744
2022/09/02 01:23:00.001,n,160,5.04,2.88,10.08,15.1,84.8,1022.02,0,0,0,0,0.024338
2022/09/02 01:24:00.002,n,157,3.6,3.24,3.96,15.1,84.8,1022.02,0,0,0,0,0.022583
2022/09/02 01:25:00.001,n,155,1.8,1.44,2.16,15.1,84.8,1022.02,0,0,0,0,0.021744
2022/09/02 01:26:00.007,n,154,4.32,3.6,4.68,15.1,84.9,1022.02,0,0,0,0,0.023499
2022/09/02 01:27:00.010,n,159,2.52,2.16,7.2,15.1,84.9,1021.92,0,0,0,0,0.022583
2022/09/02 01:28:00.012,n,160,4.32,1.8,7.2,15.1,84.9,1021.92,0,0,0,0,0.021744
2022/09/02 01:29:00.013,n,158,4.32,3.96,4.32,15.1,84.9,1021.92,0,0,0,0,0.022583
2022/09/02 01:30:00.015,n,196,2.52,2.16,3.24,15.1,84.9,1021.92,0,0,0,0,0.022583
2022/09/02 01:31:00.003,n,154,2.16,1.08,6.12,15.1,85,1021.82,0,0,0,0,0.019989
2022/09/02 01:32:00.001,n,172,6.48,5.76,6.84,15.1,85.2,1021.82,0,0,0,0,0.018272
2022/09/02 01:33:00.001,n,157,7.2,5.04,9.72,15.1,85.1,1021.82,0,0,0,0,0.017357
2022/09/02 01:34:00.003,n,141,3.6,1.8,6.48,15.1,85.2,1021.82,0,0,0,0,0.018272
2022/09/02 01:35:00.003,n,149,4.68,1.8,9.36,15.1,85.2,1021.82,0,0,0,0,0.024376
2022/09/02 01:36:00.003,n,161,6.12,3.24,8.28,15.1,85.2,1021.82,0,0,0,0,0.029602
2022/09/02 01:37:00.006,n,215,2.16,1.44,5.04,15.1,85.3,1021.92,0,0,0,0,0.027008
2022/09/02 01:38:00.006,n,204,2.16,1.08,5.76,15.1,85.3,1021.92,0,0,0,0,0.029602
2022/09/02 01:39:00.010,n,264,3.24,2.88,4.32,15.1,85.3,1022.02,0,0,0,0,0.027008
2022/09/02 01:40:00.001,n,275,3.24,2.16,3.96,15.2,85.5,1022.02,0,0,0,0,0.026131
2022/09/02 01:41:00.001,n,273,2.52,1.44,3.24,15.2,85.4,1022.02,0,0,0,0,0.026131
2022/09/02 01:42:00.001,n,272,3.6,3.24,3.96,15.2,85.3,1022.02,0,0,0,0,0.026131
2022/09/02 01:43:00.003,n,238,3.24,1.8,3.6,15.2,85.5,1022.12,0,0,0,0,0.027008
2022/09/02 01:44:00.007,n,291,3.96,3.6,4.68,15.2,85.6,1022.12,0,0,0,0,0.026131
2022/09/02 01:45:00.010,n,274,2.88,2.88,3.24,15.3,85.6,1022.12,0,0,0,0,0.027885
2022/09/02 01:46:00.011,n,280,3.96,3.6,5.4,15.3,85.5,1022.02,0,0,0,0,0.022659
2022/09/02 01:47:00.014,n,247,1.8,1.08,2.52,15.3,85.5,1022.02,0,0,0,0,0.027008
2022/09/02 01:48:00.007,n,275,3.96,3.96,3.96,15.3,85.5,1022.02,0,0,0,0,0.026131
2022/09/02 01:49:00.001,n,281,3.24,2.88,3.96,15.3,85.3,1021.92,0,0,0,0,0.028725
2022/09/02 01:50:00.001,n,268,1.8,1.08,2.16,15.3,85.3,1021.92,0,0,0,0,0.027885
2022/09/02 01:51:00.001,n,252,2.16,1.44,2.88,15.3,85.4,1021.92,0,0,0,0,0.029602
2022/09/02 01:52:00.001,n,257,2.88,2.88,3.24,15.3,85.4,1021.92,0,0,0,0,0.027008
2022/09/02 01:53:00.002,n,236,1.44,0.72,4.32,15.3,85.2,1021.92,0,0,0,0,0.027885
2022/09/02 01:54:00.001,n,157,1.08,1.08,1.44,15.3,85.2,1021.92,0,0,0,0,0.030518
2022/09/02 01:55:00.003,n,38,1.44,1.44,1.8,15.3,85.1,1021.92,0,0,0,0,0.030518
2022/09/02 01:56:00.001,n,128,0.36,0,0.72,15.3,85.2,1021.92,0,0,0,0,0.027885
2022/09/02 01:57:00.002,n,254,1.08,0.36,2.52,15.3,85.3,1021.92,0,0,0,0,0.028725
2022/09/02 01:58:00.001,n,117,0.72,0.72,1.08,15.3,85.3,1021.92,0,0,0,0,0.027008
2022/09/02 01:59:00.001,n,40,0.36,0,0.72,15.3,85.2,1021.82,0,0,0,0,0.028725
2022/09/02 02:00:00.002,n,51,0.36,0.36,0.72,15.3,85.1,1021.82,0,0,0,0,0.029602
2022/09/02 02:01:00.001,n,143,0.72,0.72,0.72,15.3,84.9,1021.82,0,0,0,0,0.031357
2022/09/02 02:02:00.001,n,112,1.44,1.08,1.44,15.3,84.8,1021.72,0,0,0,0,0.028725
2022/09/02 02:03:00.001,n,44,0.72,0,1.8,15.3,84.9,1021.72,0,0,0,0,0.027885
2022/09/02 02:04:00.002,n,57,1.08,0.72,1.8,15.2,84.8,1021.72,0,0,0,0,0.028725
2022/09/02 02:05:00.007,n,3,0.72,0.36,1.44,15.2,85,1021.72,0,0,0,0,0.027885
2022/09/02 02:06:00.010,n,158,0.36,0,0.72,15.3,85.1,1021.72,0,0,0,0,0.030518
2022/09/02 02:07:00.001,n,29,0.36,0.36,0.36,15.3,85,1021.72,0,0,0,0,0.027885
2022/09/02 02:08:00.003,n,339,0.72,0.36,1.08,15.3,85,1021.72,0,0,0,0,0.033951
2022/09/02 02:09:00.003,n,248,0.72,0.36,1.08,15.3,84.9,1021.72,0,0,0,0,0.029602
2022/09/02 02:10:00.005,n,255,2.52,2.16,2.88,15.3,84.9,1021.72,0,0,0,0,0.032234
2022/09/02 02:11:00.007,n,244,0.72,0.36,1.44,15.3,84.8,1021.72,0,0,0,0,0.029602
2022/09/02 02:12:00.008,n,273,2.16,1.08,2.88,15.3,84.8,1021.82,0,0,0,0,0.035706
2022/09/02 02:13:00.008,n,274,2.16,1.8,2.52,15.3,84.9,1021.72,0,0,0,0,0.032234
2022/09/02 02:14:00.010,n,281,2.52,2.16,3.24,15.3,84.9,1021.72,0,0,0,0,0.033112
2022/09/02 02:15:00.011,n,294,1.08,0.72,1.8,15.3,85,1021.62,0,0,0,0,0.033112
2022/09/02 02:16:00.002,n,97,0.72,0.36,1.08,15.3,85,1021.62,0,0,0,0,0.033112
2022/09/02 02:17:00.001,n,178,2.16,1.08,5.76,15.4,85,1021.62,0,0,0,0,0.033112
2022/09/02 02:18:00.001,n,224,2.88,2.16,3.6,15.4,84.9,1021.52,0,0,0,0,0.034828
2022/09/02 02:19:00.001,n,154,2.88,2.88,3.24,15.4,84.9,1021.52,0,0,0,0,0.033951
2022/09/02 02:20:00.001,n,142,3.6,3.24,3.96,15.4,84.9,1021.52,0,0,0,0,0.033951
2022/09/02 02:21:00.001,n,141,2.52,2.16,2.88,15.4,84.9,1021.52,0,0,0,0,0.033112
2022/09/02 02:22:00.004,n,125,1.8,1.44,1.8,15.3,84.8,1021.52,0,0,0,0,0.033112
2022/09/02 02:23:00.006,n,124,1.8,1.44,2.16,15.3,84.8,1021.52,0,0,0,0,0.031357
2022/09/02 02:24:00.008,n,173,2.16,2.16,2.52,15.3,84.8,1021.52,0,0,0,0,0.032234
2022/09/02 02:25:00.001,n,164,3.24,2.52,7.2,15.3,84.8,1021.52,0,0,0,0,0.033951
2022/09/02 02:26:00.001,n,98,1.08,0.36,1.8,15.3,84.9,1021.52,0,0,0,0,0.030518
2022/09/02 02:27:00.002,n,250,1.08,0.72,1.8,15.3,84.9,1021.52,0,0,0,0,0.033951
2022/09/02 02:28:00.004,n,268,1.44,1.08,2.16,15.3,84.9,1021.52,0,0,0,0,0.032234
2022/09/02 02:29:00.006,n,344,1.8,1.08,2.52,15.3,85.1,1021.52,0,0,0,0,0.032234
2022/09/02 02:30:00.001,n,304,1.8,1.8,2.16,15.4,85.1,1021.42,0,0,0,0,0.033112
2022/09/02 02:31:00.001,n,103,0.36,0.36,0.72,15.4,85.1,1021.42,0,0,0,0,0.032234
2022/09/02 02:32:00.004,n,135,0.72,0.36,1.08,15.4,85,1021.42,0,0,0,0,0.032234
2022/09/02 02:33:00.006,n,106,1.44,0.72,1.8,15.4,84.9,1021.42,0,0,0,0,0.030518
2022/09/02 02:34:00.002,n,184,0.72,0.36,0.72,15.4,84.8,1021.42,0,0,0,0,0.030518
2022/09/02 02:35:00.001,n,5,0.36,0,0.36,15.4,84.7,1021.32,0,0,0,0,0.034828
2022/09/02 02:36:00.001,n,172,1.44,0.72,5.4,15.4,84.7,1021.32,0,0,0,0,0.028725
2022/09/02 02:37:00.001,n,134,1.8,1.44,1.8,15.4,84.7,1021.32,0,0,0,0,0.033112
2022/09/02 02:38:00.001,n,270,0.72,0.36,1.44,15.4,84.8,1021.32,0,0,0,0,0.031357
2022/09/02 02:39:00.002,n,98,1.08,0.72,1.08,15.4,84.8,1021.32,0,0,0,0,0.033112
2022/09/02 02:40:00.003,n,238,1.44,1.08,2.52,15.4,84.7,1021.32,0,0,0,0,0.029602
2022/09/02 02:41:00.005,n,174,1.08,0.36,5.76,15.4,84.8,1021.32,0,0,0,0,0.035706
2022/09/02 02:42:00.007,n,237,1.44,1.08,1.8,15.4,84.8,1021.32,0,0,0,0,0.033951
2022/09/02 02:43:00.001,n,303,0.72,0.36,1.08,15.4,84.8,1021.32,0,0,0,0,0.031357
2022/09/02 02:44:00.001,n,242,2.88,2.52,3.24,15.4,84.8,1021.32,0,0,0,0,0.033951
2022/09/02 02:45:00.005,n,283,2.16,1.8,2.88,15.4,84.7,1021.32,0,0,0,0,0.035706
2022/09/02 02:46:00.001,n,161,2.88,1.8,3.96,15.4,84.5,1021.32,0,0,0,0,0.032234
2022/09/02 02:47:00.002,n,271,1.8,0.72,3.96,15.4,84.4,1021.32,0,0,0,0,0.033951
2022/09/02 02:48:00.002,n,284,3.96,3.6,3.96,15.4,84.3,1021.32,0,0,0,0,0.032234
2022/09/02 02:49:00.004,n,231,2.52,1.8,2.88,15.4,84.3,1021.32,0,0,0,0,0.034828
2022/09/02 02:50:00.006,n,297,2.16,1.44,2.52,15.3,84.3,1021.22,0,0,0,0,0.039177
2022/09/02 02:51:00.010,n,231,1.08,0.36,5.4,15.3,84.5,1021.22,0,0,0,0,0.034828
2022/09/02 02:52:00.001,n,257,1.44,0.72,1.8,15.3,84.6,1021.22,0,0,0,0,0.036583
2022/09/02 02:53:00.001,n,236,2.52,1.8,2.88,15.4,84.6,1021.22,0,0,0,0,0.034828
2022/09/02 02:54:00.002,n,266,0.72,0.36,1.08,15.4,84.5,1021.12,0,0,0,0,0.034828
2022/09/02 02:55:00.001,n,164,0.72,0.36,1.08,15.3,84.4,1021.12,0,0,0,0,0.035706
2022/09/02 02:56:00.004,n,148,2.16,1.44,2.52,15.3,84.4,1021.02,0,0,0,0,0.0383
2022/09/02 02:57:00.007,n,206,1.44,0.36,2.88,15.3,84.4,1021.02,0,0,0,0,0.033112
2022/09/02 02:58:00.009,n,143,1.44,1.08,1.8,15.3,84.4,1021.02,0,0,0,0,0.036583
2022/09/02 02:59:00.010,n,189,1.44,0.72,2.16,15.2,84.5,1021.02,0,0,0,0,0.041809
2022/09/02 03:00:00.013,n,101,0.36,0.36,0.72,15.2,84.6,1021.02,0,0,0,0,0.034828
2022/09/02 03:01:00.001,n,284,1.44,0.36,2.52,15.2,84.6,1021.02,0,0,0,0,0.040932
2022/09/02 03:02:00.001,n,341,0.36,0.36,1.08,15.3,84.7,1021.02,0,0,0,0,0.039177
2022/09/02 03:03:00.003,n,229,1.8,1.08,2.16,15.3,84.8,1021.02,0,0,0,0,0.0383
2022/09/02 03:04:00.001,n,3,0.72,0.36,1.44,15.3,84.8,1021.02,0,0,0,0,0.040932
2022/09/02 03:05:00.001,n,48,0.72,0.36,1.44,15.3,84.8,1021.02,0,0,0,0,0.039177
2022/09/02 03:06:00.001,n,16,1.08,0,4.68,15.3,84.9,1021.02,0,0,0,0,0.03746
2022/09/02 03:07:00.004,n,288,1.8,1.8,2.16,15.3,84.8,1021.02,0,0,0,0,0.035706
2022/09/02 03:08:00.007,n,268,1.44,1.08,1.8,15.3,84.9,1021.02,0,0,0,0,0.039177
2022/09/02 03:09:00.016,n,266,1.44,0.72,1.44,15.4,84.7,1021.02,0,0,0,0,0.039177
2022/09/02 03:10:00.001,n,240,1.08,0.36,2.52,15.4,84.7,1021.02,0,0,0,0,0.035706
2022/09/02 03:11:00.005,n,283,1.8,1.44,2.16,15.3,84.7,1021.02,0,0,0,0,0.036583
2022/09/02 03:12:00.006,n,290,0.72,0.72,0.72,15.3,84.6,1021.02,0,0,0,0,0.036583
2022/09/02 03:13:00.001,n,260,3.6,2.52,4.32,15.3,84.5,1021.02,0,0,0,0,0.034828
2022/09/02 03:14:00.010,n,254,3.24,2.16,3.6,15.3,84.5,1021.02,0,0,0,0,0.036583
2022/09/02 03:15:00.001,n,276,5.04,4.32,6.12,15.3,84.4,1021.02,0,0,0,0,0.03746
2022/09/02 03:16:00.013,n,273,3.6,3.24,3.96,15.3,84.3,1021.02,0,0,0,0,0.036583
2022/09/02 03:17:00.007,n,215,3.6,2.16,4.68,15.2,84.2,1021.12,0,0,0,0,0.036583
2022/09/02 03:18:00.010,n,278,4.68,3.96,6.12,15.2,84.2,1021.12,0,0,0,0,0.034828
2022/09/02 03:19:00.002,n,280,7.2,6.84,7.92,15.1,84.2,1021.12,0,0,0,0,0.03746
2022/09/02 03:20:00.004,n,253,5.04,4.68,5.4,15.1,84.3,1021.12,0,0,0,0,0.040932
2022/09/02 03:21:00.001,n,262,5.76,5.04,6.12,15.1,84.3,1021.22,0,0,0,0,0.03746
2022/09/02 03:22:00.007,n,260,3.96,0.72,4.68,15.1,84.4,1021.22,0,0,0,0,0.03746
2022/09/02 03:23:00.011,n,264,4.68,4.32,5.04,15.1,84.5,1021.22,0,0,0,0,0.036583
2022/09/02 03:24:00.012,n,272,3.24,2.16,3.96,15.1,84.4,1021.22,0,0,0,0,0.034828
2022/09/02 03:25:00.001,n,290,3.96,3.24,4.32,15.1,84.5,1021.22,0,0,0,0,0.035706
2022/09/02 03:26:00.003,n,271,4.32,3.96,4.68,15.1,84.6,1021.32,0,0,0,0,0.035706
2022/09/02 03:27:00.004,n,250,2.88,1.8,3.6,15.1,84.9,1021.32,0,0,0,0,0.035706
2022/09/02 03:28:00.001,n,238,5.76,3.96,6.84,15.1,84.5,1021.32,0,0,0,0,0.035706
2022/09/02 03:29:00.001,n,272,5.4,5.04,6.12,15.1,84.3,1021.32,0,0,0,0,0.029602
2022/09/02 03:30:00.002,n,259,3.24,1.44,3.96,15.1,84.4,1021.32,0,0,0,0,0.031357
2022/09/02 03:31:00.004,n,266,6.84,6.12,6.84,15,84.4,1021.32,0,0,0,0,0.034828
2022/09/02 03:32:00.007,n,268,7.56,6.48,8.28,15,84.3,1021.32,0,0,0,0,0.034828
2022/09/02 03:33:00.011,n,190,3.6,2.52,4.32,15,84.4,1021.32,0,0,0,0,0.035706
2022/09/02 03:34:00.012,n,278,2.16,1.8,3.6,15,84.6,1021.42,0,0,0,0,0.036583
2022/09/02 03:35:00.015,n,240,3.24,2.52,3.96,15,84.6,1021.42,0,0,0,0,0.033951
2022/09/02 03:36:00.001,n,291,3.6,2.88,3.96,15.1,85,1021.42,0,0,0,0,0.033951
2022/09/02 03:37:00.001,n,266,5.04,1.44,5.76,15.1,84.6,1021.42,0,0,0,0,0.033951
2022/09/02 03:38:00.001,n,268,4.68,4.32,5.04,15,84.5,1021.42,0,0,0,0,0.032234
2022/09/02 03:39:00.001,n,221,3.6,1.44,4.68,15,84.5,1021.52,0,0,0,0,0.033951
2022/09/02 03:40:00.001,n,310,2.52,2.16,3.24,15,85.1,1021.52,0,0,0,0,0.031357
2022/09/02 03:41:00.001,n,285,6.12,5.76,6.84,15.1,84.9,1021.52,0,0,0,0,0.031357
2022/09/02 03:42:00.001,n,261,4.68,4.32,5.4,15.1,84.6,1021.52,0,0,0,0,0.032234
2022/09/02 03:43:00.006,n,278,4.68,3.96,4.68,15.1,85,1021.62,0,0,0,0,0.029602
2022/09/02 03:44:00.007,n,261,4.68,4.32,5.04,15.1,84.7,1021.62,0,0,0,0,0.029602
2022/09/02 03:45:00.009,n,291,3.6,2.88,3.96,15.1,84.6,1021.62,0,0,0,0,0.029602
2022/09/02 03:46:00.001,n,274,3.6,3.24,3.96,15,84.6,1021.62,0,0,0,0,0.028725
2022/09/02 03:47:00.001,n,269,3.96,3.96,4.32,15,84.6,1021.62,0,0,0,0,0.030518
2022/09/02 03:48:00.002,n,277,4.68,3.96,5.4,15,84.6,1021.62,0,0,0,0,0.031357
2022/09/02 03:49:00.001,n,290,2.52,1.8,3.6,15,84.9,1021.72,0,0,0,0,0.031357
2022/09/02 03:50:00.002,n,262,3.96,3.24,5.04,15.1,85,1021.72,0,0,0,0,0.028725
2022/09/02 03:51:00.003,n,277,5.04,4.32,5.4,15.1,84.9,1021.82,0,0,0,0,0.032234
2022/09/02 03:52:00.002,n,259,6.12,5.04,7.56,15.1,84.6,1021.82,0,0,0,0,0.031357
2022/09/02 03:53:00.011,n,265,6.48,5.76,6.84,15.1,84.6,1021.92,0,0,0,0,0.032234
2022/09/02 03:54:00.012,n,280,5.04,4.32,6.12,15.1,84.6,1021.92,0,0,0,0,0.032234
2022/09/02 03:55:00.001,n,282,5.4,4.68,6.48,15.1,84.5,1021.92,0,0,0,0,0.030518
2022/09/02 03:56:00.002,n,260,5.4,2.88,7.2,15,84.5,1021.92,0,0,0,0,0.032234
2022/09/02 03:57:00.006,n,285,3.24,2.52,3.6,15,84.5,1021.92,0,0,0,0,0.032234
2022/09/02 03:58:00.006,n,253,6.48,3.6,7.2,15,84.5,1022.02,0,0,0,0,0.033951
2022/09/02 03:59:00.007,n,273,2.88,2.88,3.24,15,84.5,1022.02,0,0,0,0,0.033112
2022/09/02 04:00:00.011,n,304,1.8,1.44,2.16,15,84.6,1022.02,0,0,0,0,0.033112
2022/09/02 04:01:00.002,n,250,1.44,0.72,2.88,15.1,84.9,1022.12,0,0,0,0,0.028725
2022/09/02 04:02:00.001,n,176,1.08,0,1.44,15.1,84.9,1022.12,0,0,0,0,0.030518
2022/09/02 04:03:00.002,n,349,0.72,0.36,1.08,15.2,84.9,1022.12,0,0,0,0,0.031357
2022/09/02 04:04:00.001,n,125,1.44,0.36,5.04,15.2,84.9,1022.02,0,0,0,0,0.027885
2022/09/02 04:05:00.001,n,147,0.36,0.36,0.72,15.2,84.8,1022.02,0,0,0,0,0.030518
2022/09/02 04:06:00.001,n,111,1.8,1.08,2.16,15.2,84.6,1022.02,0,0,0,0,0.029602
2022/09/02 04:07:00.001,n,122,1.8,1.44,2.16,15.2,84.5,1021.92,0,0,0,0,0.028725
2022/09/02 04:08:00.001,n,154,3.96,3.6,3.96,15.2,84.4,1021.82,0,0,0,0,0.030518
2022/09/02 04:09:00.001,n,157,4.32,3.96,4.68,15.2,84.4,1021.82,0,0,0,0,0.033112
2022/09/02 04:10:00.003,n,133,3.96,3.96,4.32,15.2,84.4,1021.82,0,0,0,0,0.028725
2022/09/02 04:11:00.005,n,171,2.52,1.8,2.52,15.2,84.4,1021.72,0,0,0,0,0.029602
2022/09/02 04:12:00.007,n,134,5.04,4.68,6.12,15.2,84.3,1021.72,0,0,0,0,0.030518
2022/09/02 04:13:00.001,n,154,3.24,1.8,8.64,15.2,84.3,1021.72,0,0,0,0,0.031357
2022/09/02 04:14:00.001,n,110,2.52,1.8,3.24,15.2,84.2,1021.72,0,0,0,0,0.028725
2022/09/02 04:15:00.002,n,144,4.68,4.32,5.04,15.2,84.2,1021.72,0,0,0,0,0.027885
2022/09/02 04:16:00.004,n,154,2.16,1.44,2.88,15.2,84.4,1021.72,0,0,0,0,0.030518
2022/09/02 04:17:00.001,n,194,1.8,0.36,5.04,15.2,84.4,1021.72,0,0,0,0,0.030518
2022/09/02 04:18:00.001,n,241,0.72,0.72,1.08,15.2,84.6,1021.82,0,0,0,0,0.028725
2022/09/02 04:19:00.001,n,120,1.44,1.08,1.8,15.2,84.6,1021.82,0,0,0,0,0.030518
2022/09/02 04:20:00.002,n,205,1.8,1.08,4.68,15.2,84.7,1021.82,0,0,0,0,0.031357
2022/09/02 04:21:00.004,n,146,3.6,2.16,8.64,15.2,84.7,1021.82,0,0,0,0,0.033112
2022/09/02 04:22:00.002,n,205,5.04,2.88,7.92,15.2,84.7,1021.82,0,0,0,0,0.030518
2022/09/02 04:23:00.002,n,146,3.24,3.24,3.96,15.2,84.7,1021.82,0,0,0,0,0.029602
2022/09/02 04:24:00.001,n,174,5.76,3.6,9.72,15.2,84.7,1021.82,0,0,0,0,0.029602
2022/09/02 04:25:00.001,n,134,2.88,2.52,3.24,15.2,84.7,1021.82,0,0,0,0,0.033112
2022/09/02 04:26:00.001,n,182,2.52,2.16,2.52,15.2,84.7,1021.82,0,0,0,0,0.029602
2022/09/02 04:27:00.001,n,157,3.96,3.6,4.32,15.2,84.7,1021.82,0,0,0,0,0.032234
2022/09/02 04:28:00.002,n,214,1.8,0.36,5.4,15.2,84.8,1021.82,0,0,0,0,0.032234
2022/09/02 04:29:00.012,n,220,2.52,2.16,4.68,15.2,84.9,1021.82,0,0,0,0,0.034828
2022/09/02 04:30:00.013,n,253,2.52,2.16,2.88,15.2,85,1021.82,0,0,0,0,0.029602
2022/09/02 04:31:00.002,n,220,1.44,1.08,1.8,15.3,85.1,1021.92,0,0,0,0,0.029602
2022/09/02 04:32:00.001,n,254,0.72,0,0.72,15.3,85.2,1021.92,0,0,0,0,0.033951
2022/09/02 04:33:00.001,n,214,1.08,0.72,1.44,15.3,85.1,1021.92,0,0,0,0,0.033951
2022/09/02 04:34:00.001,n,337,3.96,2.88,8.64,15.4,85.2,1021.92,0,0,0,0,0.035706
2022/09/02 04:35:00.001,n,241,1.08,1.08,1.44,15.4,85.3,1021.92,0,0,0,0,0.029602
2022/09/02 04:36:00.001,n,286,3.24,2.16,3.6,15.4,85.2,1022.02,0,0,0,0,0.033112
2022/09/02 04:37:00.001,n,269,4.32,0.72,5.04,15.4,84.9,1022.02,0,0,0,0,0.031357
2022/09/02 04:38:00.001,n,272,4.32,4.32,4.68,15.4,84.6,1022.12,0,0,0,0,0.031357
2022/09/02 04:39:00.002,n,265,4.68,3.24,5.76,15.3,84.5,1022.12,0,0,0,0,0.032234
2022/09/02 04:40:00.001,n,228,2.88,2.16,3.24,15.3,84.6,1022.12,0,0,0,0,0.034828
2022/09/02 04:41:00.001,n,277,1.08,0.36,1.8,15.3,84.7,1022.12,0,0,0,0,0.032234
2022/09/02 04:42:00.001,n,0,0.72,0.36,1.44,15.3,84.8,1022.22,0,0,0,0,0.030518
2022/09/02 04:43:00.001,n,131,0.72,0.36,1.8,15.4,85,1022.22,0,0,0,0,0.029602
2022/09/02 04:44:00.001,n,266,1.08,0.72,1.44,15.4,84.8,1022.12,0,0,0,0,0.032234
2022/09/02 04:45:00.003,n,210,3.96,3.24,5.04,15.4,84.7,1022.12,0,0,0,0,0.032234
2022/09/02 04:46:00.007,n,177,5.04,3.6,7.2,15.3,84.6,1022.12,0,0,0,0,0.035706
2022/09/02 04:47:00.008,n,177,9.36,6.84,12.6,15.3,84.6,1022.22,0,0,0,0,0.035706
2022/09/02 04:48:00.011,n,188,5.04,3.24,8.28,15.3,84.6,1022.22,0,0,0,0,0.036583
2022/09/02 04:49:00.001,n,193,6.12,3.6,8.64,15.3,84.6,1022.22,0,0,0,0,0.034828
2022/09/02 04:50:00.001,n,180,6.48,5.04,9,15.3,84.6,1022.22,0,0,0,0,0.034828
2022/09/02 04:51:00.002,n,158,6.12,4.68,10.8,15.3,84.4,1022.22,0,0,0,0,0.033112
2022/09/02 04:52:00.004,n,177,12.96,9.36,14.76,15.3,84.2,1022.12,0,0,0,0,0.036583
2022/09/02 04:53:00.001,n,194,7.2,4.68,9.36,15.3,84.2,1022.12,0,0,0,0,0.033951
2022/09/02 04:54:00.001,n,165,7.56,5.04,11.52,15.3,84.2,1022.12,0,0,0,0,0.031357
2022/09/02 04:55:00.002,n,167,8.28,5.04,11.52,15.2,84.2,1022.12,0,0,0,0,0.034828